HAIYANG 1

Satellite information

Favourite Embed

Satellite Type and Status

PAYLOADIN ORBIT

Key statistics

Satellite HAIYANG 1 at a glance.

Uptime

8614

Days in orbit

Revolutions

≈ 14.3

Per day

Orbit

SSO

Sun Synchronous Orbit

Inclination

98.7

Latest

Satellite identification and parameters

Extended collection of information and parameters for HAIYANG 1.

Object identification

Identified? True

Debris? False

Object name: HAIYANG 1

International designator: 2002-024A

Object number (NORAD): 27430

Object ID (CCSDS): 27430

Country: PEOPLES REPUBLIC OF CHINA (PRC)

Current information (Y/N): Y

RCS size: LARGE

Orbital parameters

Period: 100.489 minutes

Inclination: 98.7039 deg

SMA: 7159.874 km

Apoapsis: 787.222 km

Periapsis: 776.257 km

RAAN: 301.6734 deg

Eccentricy: 0.0007657

Argument of periapsis: 270.3651 deg

Mean anomaly: 89.6656 deg

Mean motion: 14.32994953 rev/day

Mean motion (dot): 0.00000606 rev/day2

B* drag term: 0.00023802518 1/REarth

Two-line elements (TLE)

Creation date: Dec. 12, 2025, 3:16 a.m.

Reference frame: TEME

Reference center: EARTH

Epoch: Dec. 11, 2025, 8 p.m. UTC

TLE line 0: 0 HAIYANG 1

TLE line 1: 1 27430U 02024A 25345.83346789 .00000606 00000-0 23803-3 0 9992

TLE line 2: 2 27430 98.7039 301.6734 0007657 270.3651 89.6656 14.32994953230999

Live tracking on map

Real-time ground track for satellite HAIYANG 1.

In-orbit conjunctions

A list of the most updated potential collisions computed for object HAIYANG 1.

Target Orbit TCA Probability of collision Miss distance Type
FENGYUN 1C DEB SSO 2025-10-15 11:53:34 0.0002972415 385.0 (m) DEBRIS
FENGYUN 1C DEB SSO 2025-09-01 16:00:25 0.0001393628 822.0 (m) DEBRIS
NOAA 16 DEB SSO 2025-05-19 23:41:56 0.0002343412 908.0 (m) DEBRIS
CZ-6A DEB SSO 2025-03-15 09:10:15 0.0002831101 898.0 (m) DEBRIS
COSMOS 2251 DEB LEO 2024-11-07 03:36:31 0.002221654 130.0 (m) DEBRIS

Associated space launch

HaiYang abbreviated HY, is a series of marine remote sensing satellites developed and operated by China since 2002. As of June 2020, six satellites were launched and two more are planned. Feng Yun 1D was a polar orbiting meteorological satellite.

HAIYANG 1 was lifted into orbit during the mission ‘Long March 4B | Hai Yang 1 & Feng Yun 1D’, on board a Long March 4B space rocket.

The launch took place on May 15, 2002, 1:50 a.m. from Launch Complex 7.

For more information about the launch, click the button.

Launch to space Long March 4B | Hai Yang 1 & Feng Yun 1D
Long March 4B | Hai Yang 1 & Feng Yun 1D

Agency: N/A

Status: Launch Successful

Launch date: May 15, 2002, 1:50 a.m. UTC

Rocket: Long March 4B

Launch pad: Launch Complex 7

Location: Taiyuan Satellite Launch Center, People's Republic of China

...

Latest news about this satellite

There are no fresh news available about this satellite. Check back as we update our databases every day.


Newsletter sign-up

Weekly statistics, charts and insights to help you stay on top of the space industry.